Location: ??
(35.1714°N, 128.2806°E)
Time: 15:17:55
(UTC+00:00)

METEOR-M - Pass Details

Date: 29 October 2020
Orbit: 815 x 820 km, 98.5° (Epoch: 01 December)

Event Time Altitude Azimuth Distance (km) Brightness Sun altitude
Rises 20:11:46 0° 12° (NNE) 3,349 7.4 -19.8°
Reaches altitude 10° 20:14:07 10° 12° (NNE) 2,412 6.7 -19.3°
Maximum altitude 20:19:28 86° 285° (WNW) 822 4.0 -18.2°
Drops below altitude 10° 20:24:47 10° 196° (SSW) 2,396 6.5 -17.2°
Sets 20:27:07 0° 196° (SSW) 3,324 7.2 -16.7°
